Weather History for KMSO - May, 2012

Change the Weather History Date:

Saturday, May 5, 2012

  Actual Average Record
Temperature  
Mean Temperature 44 °F 50 °F  
Max Temperature 51 °F 64 °F 86 °F (1966)
Min Temperature 37 °F 37 °F 22 °F (1996)
Degree Days  
Heating Degree Days 21 15  
Month to date heating degree days 111 76  
Since 1 July heating degree days 6527 6839  
Cooling Degree Days 0 0  
Month to date cooling degree days 0 0  
Year to date cooling degree days 0 0  
Moisture  
Dew Point 29 °F    
Average Humidity 60    
Maximum Humidity 85    
Minimum Humidity 34    
Precipitation  
Precipitation 0.01 in 0.05 in 0.88 in (1983)
Month to date precipitation 0.24 0.23  
Year to date precipitation 5.06 4.00  
Snow  
Snow 0.00 in - - ()
Month to date snowfall 0.3  
Year to date snowfall 29.2  
Since 1 July snowfall 40.1  
Snow Depth 0.00 in    
Sea Level Pressure  
Sea Level Pressure 30.27 in    
Wind  
Wind Speed 9 mph (NW)    
Max Wind Speed 28 mph    
Max Gust Speed 36 mph    
Visibility 10 miles    
Events Rain    
T = Trace of Precipitation, MM = Missing Value Source: NWS Daily Summary

Daily Weather History Graph

Daily Weather History Graph

Search for Another Location

Airport or City:

Trip Planner

Search our weather history database for the weather conditions in past years. The results will help you decide how hot, cold, wet, or windy it might be!

Date:

Astronomy

May. 05, 2012 Rise Set
Actual Time 6:14 AM MDT 8:52 PM MDT
Civil Twilight 5:39 AM MDT 9:27 PM MDT
Nautical Twilight 4:55 AM MDT 10:11 PM MDT
Astronomical Twilight 4:05 AM MDT 11:02 PM MDT
Moon 8:52 PM MDT (5/5) 5:40 AM MDT (5/5)
Length of Visible Light 15h 47m
Length of Day
14h 38m
Full, 100% of the Moon is Illuminated
May 5
Full
May 5
Full
May 12
Last Quarter
May 20
New
May 28
First Quarter

Hourly Weather History & Observations

Time (MDT) Temp. Windchill Dew Point Humidity Pressure Visibility Wind Dir Wind Speed Gust Speed Precip Events Conditions
12:53 AM 41.0 °F 37.1 °F 35.1 °F 79% 30.15 in 10.0 mi NW 5.8 mph - N/A   Overcast
1:30 AM 41.0 °F 35.8 °F 33.8 °F 76% 30.14 in 10.0 mi North 8.1 mph - 0.00 in Rain Light Rain
1:53 AM 39.9 °F 35.1 °F 32.0 °F 73% 30.17 in 10.0 mi North 6.9 mph - 0.00 in   Overcast
2:53 AM 39.0 °F 34.0 °F 33.1 °F 79% 30.17 in 10.0 mi North 6.9 mph - N/A   Overcast
3:53 AM 39.0 °F 35.7 °F 34.0 °F 82% 30.19 in 10.0 mi West 4.6 mph - N/A   Overcast
4:53 AM 37.9 °F 35.5 °F 34.0 °F 86% 30.20 in 10.0 mi SW 3.5 mph - N/A   Overcast
5:53 AM 37.0 °F 34.5 °F 34.0 °F 89% 30.23 in 10.0 mi SE 3.5 mph - N/A   Overcast
6:53 AM 37.9 °F 35.5 °F 34.0 °F 86% 30.23 in 10.0 mi North 3.5 mph - 0.00 in   Mostly Cloudy
7:53 AM 39.9 °F - 34.0 °F 79% 30.24 in 10.0 mi Calm Calm - N/A   Overcast
8:53 AM 39.9 °F - 35.1 °F 83% 30.25 in 10.0 mi Calm Calm - N/A   Overcast
9:53 AM 42.1 °F 40.2 °F 32.0 °F 67% 30.27 in 10.0 mi NW 3.5 mph - N/A   Overcast
10:53 AM 45.0 °F 41.2 °F 28.9 °F 53% 30.26 in 10.0 mi West 6.9 mph - 0.00 in   Mostly Cloudy
11:53 AM 48.0 °F - 27.0 °F 44% 30.25 in 10.0 mi West 10.4 mph - N/A   Overcast
12:18 PM 46.4 °F 40.7 °F 28.4 °F 50% 30.21 in 10.0 mi NNW 12.7 mph 21.9 mph N/A   Overcast
12:53 PM 48.0 °F - 26.1 °F 42% 30.24 in 10.0 mi West 12.7 mph 21.9 mph N/A   Overcast
1:33 PM 46.4 °F 38.7 °F 24.8 °F 43% 30.21 in 10.0 mi WNW 20.7 mph - N/A   Overcast
1:53 PM 48.9 °F - 25.0 °F 39% 30.24 in 10.0 mi West 21.9 mph 27.6 mph N/A   Mostly Cloudy
2:53 PM 51.1 °F - 25.0 °F 36% 30.25 in 10.0 mi WNW 20.7 mph 27.6 mph N/A   Mostly Cloudy
3:53 PM 48.9 °F - 21.9 °F 35% 30.28 in 10.0 mi WNW 21.9 mph 35.7 mph N/A   Scattered Clouds
4:53 PM 46.9 °F - 23.0 °F 39% 30.30 in 10.0 mi WNW 21.9 mph 31.1 mph N/A   Mostly Cloudy
5:53 PM 43.0 °F 35.1 °F 28.9 °F 58% 30.34 in 10.0 mi NNW 17.3 mph - N/A   Overcast
6:53 PM 44.1 °F 38.1 °F 28.0 °F 53% 30.35 in 10.0 mi NNW 11.5 mph - N/A   Overcast
7:53 PM 44.1 °F 40.8 °F 28.0 °F 53% 30.35 in 10.0 mi NW 5.8 mph - N/A   Overcast
8:53 PM 43.0 °F 40.3 °F 28.0 °F 56% 30.36 in 10.0 mi NW 4.6 mph - N/A   Overcast
9:53 PM 43.0 °F 40.3 °F 26.1 °F 51% 30.38 in 10.0 mi West 4.6 mph - N/A   Overcast
10:53 PM 41.0 °F 35.8 °F 26.1 °F 55% 30.40 in 10.0 mi West 8.1 mph - N/A   Overcast
11:53 PM 37.0 °F - 26.1 °F 65% 30.40 in 10.0 mi Calm Calm - N/A   Overcast